Location: ?????
(55.2163°N, 38.7626°E)
Time: 13:34:05
(UTC+00:00)

Daily predictions for brighter satellites

Satellite Brightness Start Highest point End
(mag) Time Altitude Azimuth Time Altitude Azimuth Time Altitude Azimuth
Cosmos 2297 3.8 13:31:18 10° SSW 13:37:00 82° ESE 13:42:40 10° NE
Cosmos 1892 Rocket 3.6 13:35:24 10° N 13:39:53 74° ENE 13:44:19 10° SSE
Cosmos 1464 Rocket 4.0 13:33:54 10° S 13:40:04 83° E 13:46:14 10° NNE
SMAP 3.7 13:36:08 10° SE 13:40:19 34° ENE 13:44:32 10° N
Thor Agena Rocket 3.8 13:36:16 10° SE 13:41:13 46° ENE 13:46:08 10° N
Cosmos 2297 Rocket 2.5 13:38:33 10° NNW 13:43:59 44° NE 13:49:24 10° ESE
Landsat 7 4.5 13:42:29 10° ESE 13:46:33 31° ENE 13:50:38 10° N
Cosmos 2151 4.2 13:44:11 10° NNE 13:47:20 21° ENE 13:50:30 10° ESE
Cosmos 1741 Rocket 4.1 13:43:38 10° SSW 13:48:57 89° ESE 13:54:18 10° NNE
Aureole 3 Rocket 4.3 13:45:34 10° SSW 13:49:56 54° WNW 13:56:05 10° N
Cosmos 1092 Rocket 4.0 13:45:01 10° N 13:51:14 73° ENE 13:57:22 10° SSE
CZ-2D R/B 4.1 13:49:27 10° ESE 13:51:51 20° ENE 13:54:15 10° NNE
BlueWalker 3 2.9 13:51:08 10° W 13:54:38 45° SSW 13:58:06 10° SE
Meteor 2-1 Rocket 4.4 13:50:33 10° S 13:56:28 82° ESE 14:02:20 10° NNE
Cosmos 2219 4.5 13:52:17 10° NNW 13:56:41 22° NNE 14:01:08 10° ENE
Cosmos 1743 3.5 13:56:08 10° NNE 13:58:46 22° ENE 14:01:24 10° ESE
Lacrosse 4 Rocket 1.8 13:55:38 10° SSW 13:59:32 45° ESE 14:03:13 11° NE
ATLAS CENTAUR R/B 0.7 13:57:18 10° NW 14:00:35 60° NE 14:03:46 10° ESE
CZ-4C R/B 2.8 13:55:51 10° NW 14:02:02 64° NNE 14:09:59 10° ESE
Cosmos 1484 Rocket 2.5 14:00:11 10° SSE 14:03:43 85° ENE 14:07:14 10° NNW
Iridium 45 4.1 14:02:30 10° S 14:05:38 75° E 14:08:51 10° N
Cosmos 724 4.4 14:01:09 10° NW 14:07:16 67° NE 14:13:13 10° ESE
Cosmos 2034 Rocket 4.1 14:01:29 10° S 14:07:49 88° E 14:14:14 10° NNE
JB-3 4.1 14:04:08 10° NNE 14:07:51 83° ESE 14:11:30 10° SSW
Meteor 1-28 Rocket 3.4 14:06:25 10° NNE 14:09:37 39° E 14:12:47 10° S
NOSS 3-3 (A) 4.5 14:05:16 10° NW 14:12:14 83° NE 14:20:40 10° SE
Iridium 51 3.9 14:09:30 10° SSE 14:12:31 47° E 14:15:37 10° NNE
Cosmos 1602 Rocket 4.1 14:10:47 10° N 14:14:53 36° ENE 14:18:56 10° SE
MOS 1 Rocket 3.9 14:10:22 10° SE 14:14:55 39° ENE 14:19:43 10° N
Cosmos 1570 Rocket 4.0 14:09:40 10° NNW 14:15:03 85° ENE 14:20:24 10° SSE
Cosmos 1867 3.7 14:09:56 10° NW 14:15:18 53° NNE 14:20:39 10° ESE
IGS 5A 3.3 14:12:42 10° SSE 14:16:40 89° ENE 14:20:40 10° NNW
Cosmos 1455 Rocket 3.0 14:12:59 10° S 14:17:19 88° W 14:21:44 10° NNE
Lacrosse 5 rocket 1.9 14:15:11 10° SSW 14:18:41 38° SE 14:21:16 16° E
Cosmos 1844 Rocket 4.3 14:15:01 10° NNW 14:18:47 18° NNE 14:21:38 13° NE
Cosmos 2084 3.5 14:15:05 10° SW 14:19:13 62° SE 14:22:25 16° ENE
CENTAUR R/B 2.6 14:14:25 10° SW 14:20:11 69° SE 14:26:39 14° NE
IRS-P3 4.4 14:15:38 10° SE 14:20:41 46° ENE 14:25:46 10° N
Cosmos 2084 Rocket 3.4 14:17:08 10° NW 14:21:19 59° NNE 14:25:29 10° ESE
SAR-Lupe-4 3.7 14:18:14 10° SE 14:21:40 47° ENE 14:25:07 10° N
Cosmos 836 Rocket 4.5 14:18:22 10° NNW 14:23:38 89° ENE 14:28:54 10° SSE
Cosmos 2266 Rocket 4.2 14:19:34 10° N 14:25:35 47° ENE 14:31:26 10° SE
Cosmos 2263 Rocket 2.9 14:20:44 10° NNW 14:25:48 32° NE 14:30:18 12° E
Cosmos 292 Rocket 3.9 14:21:38 10° SSW 14:26:26 80° WNW 14:31:16 10° NNE
Cosmos 1315 Rocket 2.6 14:22:58 10° S 14:26:47 75° ESE 14:30:39 10° NNE
Resurs 01 Rocket 3.5 14:28:01 13° NE 14:28:01 13° NE 14:29:17 10° NNE
SL-16 R/B 2.5 14:21:05 10° NNE 14:27:22 78° ESE 14:33:35 10° SSW
Cosmos 1607 3.9 14:22:15 10° NW 14:28:29 82° NE 14:34:47 10° SE
SAR-Lupe-1 4.2 14:25:21 10° SE 14:28:50 49° ENE 14:32:22 10° N
SJ 16-02 3.7 14:26:14 10° WNW 14:28:54 16° NW 14:31:35 10° N
NOSS 7 (H) 4.3 14:26:22 10° NW 14:29:15 45° NNE 14:31:04 19° E
CZ-2D R/B 4.4 14:25:43 10° ESE 14:29:17 27° ENE 14:32:49 10° N
ERS-1 4.5 14:24:39 10° SE 14:29:34 58° ENE 14:34:28 10° N
YAOGAN 1 3.5 14:29:15 10° ESE 14:32:46 25° ENE 14:36:17 10° N
Intercosmos 24 3.8 14:29:15 10° NNW 14:33:41 88° W 14:37:17 10° S
Cosmos 2227 Rocket 2.4 14:29:29 10° NNW 14:34:57 47° NE 14:40:24 10° ESE
Cosmos 1782 2.9 14:31:59 10° SSE 14:35:23 41° E 14:37:56 16° NNE
USA 215 3.3 14:29:44 14° E 14:35:35 77° N 14:42:09 10° W
CORIOLIS 4.2 14:32:09 10° SSE 14:37:30 85° WSW 14:42:54 10° NNW
USA 281 4.4 14:38:01 17° ENE 14:40:50 22° NNE 14:45:37 10° NNW
Cosmos 405 Rocket 2.7 14:37:40 10° NNW 14:40:55 63° W 14:44:07 10° S
Cosmos 1356 Rocket 3.4 14:36:57 10° SSW 14:41:00 85° WNW 14:45:07 10° NNE
Cosmos 773 Rocket 4.1 14:36:13 10° NNW 14:41:26 84° WSW 14:46:40 10° SSE
Cosmos 2369 Rocket 3.1 14:37:02 10° WSW 14:42:26 45° NW 14:47:43 11° NNE
Cosmos 1733 1.7 14:43:15 10° NNW 14:45:12 68° WSW 14:47:06 10° S
SJ-12 3.6 14:43:11 10° SSE 14:46:58 79° ENE 14:50:46 10° NNW
Cosmos 2208 Rocket 4.2 14:43:40 10° NNW 14:48:51 74° WSW 14:54:00 10° SSE
SJ-6F 4.3 14:44:57 10° SSE 14:48:52 63° ENE 14:52:52 10° N
Cosmos 1825 Rocket 3.9 14:45:10 10° N 14:49:18 39° ENE 14:53:23 10° SE
ARIANE 5 R/B 2.5 14:44:32 10° SSE 14:49:36 88° WSW 14:54:46 10° NNW
Cosmos 1933 4.4 14:47:07 10° SE 14:49:46 23° E 14:49:46 23° E
Cosmos 1758 Rocket 3.6 14:46:12 10° NNW 14:50:34 79° W 14:54:50 10° S
Cosmos 2278 Rocket 4.0 14:47:02 10° WNW 14:50:58 19° NNW 14:54:37 11° NNE
Cosmos 1943 Rocket 4.0 14:47:36 10° WNW 14:51:18 18° NNW 14:54:44 11° NNE
GEOS 3 Rocket 3.7 14:48:18 20° NE 14:52:07 72° SE 14:57:29 10° SW
SPOT 1/Viking Rocket 3.6 14:47:12 10° SE 14:52:15 54° ENE 14:57:20 10° N
Cosmos 2228 3.1 14:48:11 10° SSW 14:52:25 76° WNW 14:56:42 10° N
Cosmos 2098 Rocket 3.0 14:53:02 10° S 14:57:00 63° E 15:01:45 10° NNE
Cosmos 1697 Rocket 3.7 14:53:29 10° SSE 14:57:49 23° ESE 14:58:26 23° E
Meteor 1-20 Rocket 4.0 14:53:33 10° NNW 14:59:04 78° ENE 15:04:32 10° SSE
BREEZE-M DEB (TANK) 3.6 14:57:11 10° WSW 15:00:03 42° S 15:05:50 14° ESE
AQUARIUS 4.2 15:02:22 10° SSE 15:06:47 81° WSW 15:11:14 10° NNW
NOSS 2-2 (C) 2.5 15:06:46 10° SW 15:09:52 79° SE 15:10:15 63° ENE
USA 290 3.0 15:10:30 10° NW 15:13:42 53° WSW 15:16:53 10° S
NOSS 3-2 (C) 3.9 15:09:11 10° S 15:13:49 34° ESE 15:15:10 30° E
NOSS 3-2 (A) 3.2 15:10:07 10° SW 15:15:15 68° SE 15:18:17 30° ENE
Cosmos 1655 Rocket 4.0 15:09:50 10° N 15:16:02 58° ENE 15:22:10 10° SSE
SMAP 4.3 15:13:10 10° S 15:17:37 43° W 15:22:04 10° NNW
Cosmos 2082 4.2 15:14:09 10° NNW 15:19:29 39° NE 15:20:46 34° ENE
Cosmos 1241 Rocket 4.4 15:13:27 10° SSW 15:19:46 68° SE 15:22:58 30° NE
Cosmos 1538 Rocket 4.1 15:17:50 10° NNW 15:22:59 51° NE 15:25:01 33° ESE
CZ-2D R/B 4.3 15:20:40 10° SSW 15:23:37 36° W 15:26:35 10° NNW
Cosmos 2151 3.5 15:20:26 10° NNW 15:24:31 59° W 15:28:37 10° S
Cosmos 1606 Rocket 3.6 15:22:54 10° S 15:27:11 53° E 15:27:44 49° ENE
Cosmos 2297 Rocket 3.1 15:22:41 10° NW 15:28:10 50° WSW 15:33:36 10° S
UNK 4.2 15:24:00 10° N 15:28:30 60° WNW 15:33:00 10° SSW
Meteor 1-25 Rocket 4.3 15:23:01 10° NNW 15:28:54 84° WSW 15:34:42 10° S
BREEZE-M DEB (TANK) 4.3 15:25:55 10° WSW 15:29:14 47° S 15:33:46 23° ESE
Cosmos 1076 Rocket 3.4 15:26:08 10° N 15:30:24 61° ENE 15:32:38 27° SSE
Okean 1-7 Rocket 3.8 15:26:57 10° NNW 15:31:22 71° W 15:35:43 10° S
Cosmos 1743 4.1 15:29:28 10° NNW 15:32:25 32° W 15:35:21 10° SSW
Cosmos 1656 3.6 15:28:33 10° SSW 15:34:12 88° ESE 15:37:03 31° NE
Resurs 1-3 3.4 15:30:04 10° SSE 15:34:22 77° ENE 15:38:41 10° NNW
ATLAS CENTAUR R/B 3.4 15:32:39 10° WNW 15:35:07 20° WSW 15:37:32 10° S
Cosmos 1544 Rocket 4.4 15:31:55 10° SSW 15:36:13 51° WNW 15:40:20 11° N
Cosmos 1503 Rocket 3.9 15:31:26 10° S 15:36:37 61° ESE 15:37:54 46° ENE
Meteor 2-10 4.1 15:32:06 10° N 15:37:17 55° ENE 15:39:46 30° SE
Lacrosse 4 Rocket 2.5 15:33:43 10° WSW 15:37:29 35° NW 15:38:43 28° N
OceanSat 1 rocket 4.4 15:34:12 10° SSE 15:38:56 73° ENE 15:43:39 10° NNW
Cosmos 2219 3.3 15:36:25 10° NNW 15:42:05 56° NE 15:43:14 48° E
Cosmos 1461 4.2 15:39:09 10° S 15:41:17 26° SSE 15:41:17 26° SSE
SJ-7 4.1 15:42:23 56° S 15:43:08 86° WSW 15:46:55 10° NNW
Cosmos 1354 Rocket 4.1 15:38:21 10° S 15:43:27 52° ESE 15:43:36 51° ESE
Meteor 1-5 Rocket 4.0 15:38:47 10° NNW 15:44:08 89° ENE 15:49:33 10° SSE
SKYMED 2 3.4 15:45:54 71° ENE 15:46:10 75° ESE 15:50:31 10° S
Spot 4 Rocket 4.0 15:41:47 10° SSE 15:46:54 80° WSW 15:52:04 10° NNW
CZ-4C R/B 3.5 15:43:59 10° NW 15:50:33 57° SW 15:58:46 10° SSE
COSMO-SKYMED 1 3.9 15:52:52 26° S 15:52:52 26° S 15:54:45 10° S
SL-19 R/B 4.2 15:47:36 10° SSE 15:52:59 82° WSW 15:58:41 10° NNW
Cosmos 1726 Rocket 3.7 15:49:16 10° S 15:53:23 64° SE 15:53:23 64° SE
PSLV R/B 3.4 15:52:38 32° S 15:54:25 76° WSW 15:58:30 10° NNW
Lacrosse 5 rocket 1.6 15:51:49 10° WSW 15:54:52 56° W 15:54:52 56° W
Cosmos 44 Rocket 4.2 15:52:08 10° NW 15:56:25 36° NNE 15:56:25 36° NNE
Cosmos 2084 4.2 15:54:05 10° W 15:58:04 41° NNW 15:58:08 41° NNW
Cosmos 1777 Rocket 3.9 15:53:31 10° SSW 15:58:48 85° WNW 16:00:11 51° NNE
Cosmos 1867 4.4 15:53:40 10° NW 15:58:55 49° SW 16:03:16 15° SSE
Cosmos 1980 Rocket 3.9 15:54:18 10° SSE 15:55:56 18° SSE 15:55:56 18° SSE
Resurs 01 Rocket 3.3 16:05:25 22° N 16:05:25 22° N 16:07:04 10° N
CZ-2D R/B 4.4 15:59:57 10° S 16:04:02 47° W 16:08:05 10° NNW
Cosmos 1844 Rocket 3.6 15:59:10 10° NNW 16:03:16 33° NNE 16:03:16 33° NNE
YAOGAN 1 3.3 16:04:14 10° S 16:08:23 52° W 16:12:35 10° NNW
Cosmos 2263 Rocket 2.2 16:04:36 10° NW 16:10:18 80° WSW 16:12:02 46° SSE
SL-16 R/B 4.2 16:05:09 10° N 16:10:27 30° NW 16:15:43 10° WSW
CENTAUR R/B 3.2 16:04:56 10° W 16:11:09 55° NNW 16:13:45 38° NE
Cosmos 1486 Rocket 4.5 16:08:10 10° SW 16:13:19 57° WNW 16:14:56 40° N
Cosmos 1953 Rocket 4.0 16:10:25 10° NNW 16:14:47 60° W 16:16:13 39° SSW
Nadezhda 2 Rocket 4.3 16:09:51 10° N 16:16:04 76° ENE 16:17:08 61° SE
Cosmos 2360 4.4 16:11:45 10° SW 16:17:28 68° NW 16:18:51 50° N
USA 81 4.1 16:12:28 10° N 16:17:45 77° W 16:23:00 10° S
USA 215 3.2 16:17:05 56° SE 16:18:39 81° SSW 16:25:15 10° WNW
Cosmos 2227 Rocket 3.1 16:13:40 10° NW 16:19:03 46° WSW 16:24:25 10° S
USA 281 3.5 16:24:53 48° NNE 16:24:53 48° NNE 16:30:27 10° NNW
Cosmos 2369 Rocket 4.1 16:23:50 10° WNW 16:27:56 20° NNW 16:29:28 18° N
GEOS 3 Rocket 4.3 16:29:20 45° N 16:29:57 47° NNW 16:35:04 10° W
Cosmos 1943 Rocket 4.2 16:33:44 10° NNW 16:36:13 16° N 16:36:13 16° N
Cosmos 2278 Rocket 4.2 16:33:36 10° NNW 16:36:26 17° N 16:36:26 17° N
Cosmos 1697 Rocket 3.0 16:35:33 10° SW 16:40:11 62° SW 16:40:11 62° SW
Cosmos 2082 4.5 16:58:16 10° NW 17:02:38 49° WNW 17:02:38 49° WNW
NOSS 3-2 (C) 4.0 16:58:46 10° WSW 17:02:36 49° WSW 17:02:36 49° WSW
NOSS 3-2 (A) 4.1 17:00:56 10° W 17:05:38 48° NW 17:05:38 48° NW
Lacrosse 4 Rocket 4.5 17:13:57 10° NW 17:14:13 11° NW 17:14:13 11° NW
Cosmos 2263 Rocket 4.5 17:49:37 10° WNW 17:53:22 18° W 17:53:46 18° WSW
CENTAUR R/B 4.0 17:56:24 10° WNW 18:00:51 37° NW 18:00:51 37° NW
